Погода в Старом Акульшете

Россия / Иркутская область     56°00′49″N   98°03′57″E
темп.,
°C
ветер,
м/с
пор.,
м/с
влажн.,
%
обл.,
%
осадки,
мм/ч
давл.,
гПа
погр.,
м
26 января, вт
вт2623:00−29зсз2398100 0.0 1045119
02:00−33зсз1297100 0.1 104619
05:00−33с119897 0.0 104426
08:00−32всв129898 0.1 104490
11:00−30всв2397100 0.1 1043165
14:00−27всв2495100 0.1 1041327
17:00−27св2396100 0.1 1041289
20:00−28ссв1298100 0.1 104341
27 января, ср
ср2723:00−30ссз1198100 0.0 104419
02:00−31зсз1199100 0.1 104519
05:00−33з1199100 0.0 104519
08:00−35юв1110099 0.0 104519
11:00−32вюв229748 0.0 104375
14:00−25юв369149 0.0 1037298
17:00−23юв4990100 0.0 1033338
20:00−21юв41090100 0.0 1028339
28 января, чт
чт2823:00−19юв4898100 1.1 1024289
02:00−17ююв2497100 2.1 1021143
05:00−12зюз31296100 0.8 1019801
08:00−9з51294100 1.4 10191067
11:00−11зсз51489100 0.7 10201219
14:00−14зсз61378100 0.7 1022895
17:00−14зсз51474100 0.0 10231075
20:00−16сз41295100 0.7 1024754
29 января, пт
пт2923:00−17сз1498100 1.3 1022320
02:00−19всв2298100 2.6 1019141
05:00−19в2498100 1.3 1016174
08:00−18в2498100 3.1 1013156
11:00−16в2397100 2.1 1010106
14:00−13ссз2795100 3.5 1011271
17:00−13сз2695100 0.8 1012313
20:00−17с1297100 2.1 1014162
30 января, сб
сб3023:00−18св1198100 1.2 101342
02:00−18зсз2598100 2.4 1013168
05:00−21сз61394100 0.6 1017764
08:00−25зсз51194100 0.9 1023741
11:00−27зсз51191100 0.1 1028768
14:00−27зсз51090100 0.2 1031752
17:00−27зсз4892100 0.1 1033734
20:00−32з2398100 0.1 103729